doom9.org alexa rank chart, doom9.org alexa rank daily changes

doom9.org alexa rank chart, doom9.org alexa rank daily changes

doom9.org
Actual rank:
42 656

RANK HISTORY

Date Rank Diff
2017/06/28 42 656 +51
2017/06/27 42 605 -538
2017/06/26 43 143 -135
2017/06/25 43 278 +342
2017/06/24 42 936 -112
2017/06/23 43 048 -183
2017/06/22 43 231 +12
2017/06/21 43 219 -176
2017/06/20 43 395 -428
2017/06/19 43 823 -1 083
2017/06/18 44 906 -757
2017/06/17 45 663 -705
2017/06/16 46 368 +150
2017/06/15 46 218 +778
2017/06/14 45 440 +466
2017/06/13 44 974 -3
2017/06/12 44 977 +315
2017/06/11 44 662 -483
2017/06/10 45 145 -27
2017/06/09 45 172 +1 275
2017/06/08 43 897 -339
2017/06/07 44 236 +82
2017/06/06 44 154 +721
2017/06/05 43 433 -100
2017/06/04 43 533 +700
2017/06/03 42 833 +982
2017/06/02 41 851 +609
2017/06/01 41 242 +113
2017/05/31 41 129 -201
2017/05/30 41 330 -138
2017/05/29 41 468 +149
2017/05/28 41 319 +4
2017/05/27 41 315 -70
2017/05/26 41 385 -44
2017/05/25 41 429 -215
2017/05/24 41 644 +934
2017/05/23 40 710 +379
2017/05/22 40 331 +413
2017/05/21 39 918 +365
2017/05/20 39 553 +731
2017/05/19 38 822 +661
2017/05/18 38 161 +1 047
2017/05/17 37 114 +819
2017/05/16 36 295 -339
2017/05/15 36 634 -708
2017/05/14 37 342 -255
2017/05/13 37 597 +139
2017/05/12 37 458 +309
2017/05/11 37 149 +433
2017/05/10 36 716 +94
2017/05/09 36 622 -616
2017/05/08 37 238 +294
2017/05/07 36 944 +52
2017/05/06 36 892 -144
2017/05/05 37 036 +402
2017/05/04 36 634 +1
2017/05/03 36 633 -626
2017/05/02 37 259 -462
2017/05/01 37 721 +8
2017/04/30 37 713 +349
2017/04/29 37 364

WIDGET FOR YOUR SITE

DOMAINS WITH THE NEAREST RANK

Domain Rank
yesmovies.org 42 651
guhtjoqtobac.com 42 652
humankinetics.com 42 653
next-engine.com 42 654
mygeotv.com 42 655
doom9.org 42 656
timberland.com 42 657
sidespace.net 42 658
tolisso.trade 42 659
calendar-365.com 42 660
durszlak.pl 42 661

DOMAINS WITH THE NEAREST RANK BY TLD .org

Domain Rank
imageteam.org 42 590
junona.org 42 594
electrum.org 42 620
baps.org 42 640
yesmovies.org 42 651
doom9.org 42 656
hobby-site.org 42 685
audubon.org 42 699
hd4fans.org 42 701
vikidia.org 42 718
englishforeveryone.org 42 765